This is the latest recevied weather packets stored in our database for station/object N7ZAP. If no packets are shown the sender has not sent any weather packets the latest 10 day(s).
| Time | Temp. | Humidity | Pressure | Rain* | Wind** | Luminosity | Snow |
|---|---|---|---|---|---|---|---|
| 1788381764 | 33.33° C | 24% | 1019.9 hPa | 0 mm | - | - | - |
| 1788381464 | 33.33° C | 24% | 1020.1 hPa | 0 mm | - | - | - |
| 1788381159 | 33.89° C | 24% | 1020.2 hPa | 0 mm | - | - | - |
| 1788380853 | 33.33° C | 24% | 1020.6 hPa | 0 mm | - | - | - |
| 1788380550 | 33.89° C | 24% | 1020.7 hPa | 0 mm | - | - | - |
| 1788380246 | 33.89° C | 23% | 1020.4 hPa | 0 mm | - | - | - |
| 1788379945 | 33.33° C | 24% | 1020.4 hPa | 0 mm | - | - | - |
| 1788379640 | 33.33° C | 25% | 1021 hPa | 0 mm | - | - | - |
| 1788379336 | 33.89° C | 23% | 1020.9 hPa | 0 mm | - | - | - |
| 1788379032 | 34.44° C | 22% | 1020.9 hPa | 0 mm | - | - | - |
| 1788378731 | 35.56° C | 22% | 1021.1 hPa | 0 mm | - | - | - |
| 1788378430 | 34.44° C | 23% | 1020.9 hPa | 0 mm | - | - | - |
| 1788378125 | 34.44° C | 24% | 1021.1 hPa | 0 mm | - | - | - |
| 1788377821 | 34.44° C | 23% | 1021.2 hPa | 0 mm | - | - | - |
| 1788377516 | 34.44° C | 24% | 1021.4 hPa | 0 mm | - | - | - |
| 1788377215 | 33.89° C | 24% | 1021.4 hPa | 0 mm | - | - | - |
| 1788376915 | 33.89° C | 25% | 1021.4 hPa | 0 mm | - | - | - |
| 1788376614 | 34.44° C | 23% | 1021.6 hPa | 0 mm | - | - | - |
| 1788376309 | 34.44° C | 23% | 1021.4 hPa | 0 mm | - | - | - |
| 1788376005 | 33.89° C | 24% | 1021.6 hPa | 0 mm | - | - | - |
| 1788375700 | 33.89° C | 23% | 1021.7 hPa | 0 mm | - | - | - |
| 1788375396 | 33.89° C | 24% | 1021.8 hPa | 0 mm | - | - | - |
| 1788375092 | 32.78° C | 27% | 1022.1 hPa | 0 mm | - | - | - |
| 1788374791 | 32.22° C | 26% | 1022 hPa | 0 mm | - | - | - |
| 1788374487 | - | - | - | 0 mm | - | - | - |
* Rain latest hour (hover to see other rain measurements)
** Current wind speed in m/s (hover to see current wind gust speed)